FW6664 Weather Reports


Display with metric or nautical units.
time (UTC)temp
F
wind
direction
speed
MPH
gust
MPH
rain 1hr
in
rain 24hr
in
rain mn
in
humidity
%
barometer
mb
20260503222350 66 283 5.0 0.0 0.00 0.00 0.00 33 1017.0
20260503222046 66 138 2.0 7.0 0.00 0.00 0.00 33 1017.0
20260503221841 66 231 8.0 0.0 0.00 0.00 0.00 33 1017.0
20260503221537 66 303 6.0 7.0 0.00 0.00 0.00 33 1017.0
20260503221336 66 282 6.0 0.0 0.00 0.00 0.00 33 1017.0
20260503221032 66 292 4.0 8.0 0.00 0.00 0.00 33 1017.0
20260503220833 66 233 7.0 0.0 0.00 0.00 0.00 33 1017.0
20260503220531 65 257 0.0 8.0 0.00 0.00 0.00 33 1017.0
20260503220331 65 236 8.0 0.0 0.00 0.00 0.00 33 1017.0
20260503220056 65 221 4.0 6.0 0.00 0.00 0.00 33 1017.0
20260503215827 65 259 4.0 0.0 0.00 0.00 0.00 33 1017.0
20260503215550 64 292 3.0 7.0 0.00 0.00 0.00 33 1017.0
20260503215342 65 265 2.0 0.0 0.00 0.00 0.00 33 1017.0
20260503215046 64 224 2.0 7.0 0.00 0.00 0.00 33 1017.0
20260503214839 65 291 9.0 0.0 0.00 0.00 0.00 33 1017.0
20260503214538 64 245 5.0 7.0 0.00 0.00 0.00 33 1017.0
20260503214339 65 278 4.0 0.0 0.00 0.00 0.00 33 1017.0
20260503214032 64 261 5.0 6.0 0.00 0.00 0.00 33 1017.0
20260503213838 64 286 6.0 0.0 0.00 0.00 0.00 33 1017.0
20260503213525 64 297 3.0 7.0 0.00 0.00 0.00 33 1017.0
20260503213333 64 259 8.0 0.0 0.00 0.00 0.00 33 1017.0
20260503213016 64 297 6.0 9.0 0.00 0.00 0.00 33 1017.0
20260503212848 65 258 10.0 0.0 0.00 0.00 0.00 33 1017.0
20260503212552 64 290 6.0 11.0 0.00 0.00 0.00 33 1017.0
20260503212324 65 262 9.0 0.0 0.00 0.00 0.00 33 1017.0
20260503212044 65 290 7.0 11.0 0.00 0.00 0.00 33 1017.0
20260503211842 65 234 4.0 0.0 0.00 0.00 0.00 33 1017.0
20260503211538 65 287 2.0 7.0 0.00 0.00 0.00 33 1017.0
20260503211338 65 288 5.0 0.0 0.00 0.00 0.00 33 1017.0
20260503211033 65 253 5.0 7.0 0.00 0.00 0.00 33 1017.0
20260503210837 66 268 12.0 0.0 0.00 0.00 0.00 33 1017.0
20260503210528 65 238 4.0 7.0 0.00 0.00 0.00 33 1017.0
20260503210332 66 214 6.0 0.0 0.00 0.00 0.00 33 1017.0
20260503210020 66 293 3.0 9.0 0.00 0.00 0.00 33 1017.0
20260503205828 66 236 3.0 0.0 0.00 0.00 0.00 33 1017.0
20260503205550 66 297 6.0 9.0 0.00 0.00 0.00 33 1017.0
20260503205342 67 287 5.0 0.0 0.00 0.00 0.00 33 1017.0
20260503205044 66 218 4.0 6.0 0.00 0.00 0.00 33 1017.0
20260503204839 66 281 3.0 0.0 0.00 0.00 0.00 33 1017.0
20260503204539 65 257 3.0 8.0 0.00 0.00 0.00 33 1017.0
20260503204336 66 260 5.0 0.0 0.00 0.00 0.00 33 1017.0
20260503204033 66 271 6.0 8.0 0.00 0.00 0.00 33 1017.0
20260503203833 66 202 10.0 0.0 0.00 0.00 0.00 33 1017.0
20260503203506 65 242 6.0 8.0 0.00 0.00 0.00 33 1017.0
20260503203328 66 289 6.0 0.0 0.00 0.00 0.00 33 1017.0
20260503203035 65 257 6.0 8.0 0.00 0.00 0.00 33 1017.0
20260503202845 66 297 5.0 0.0 0.00 0.00 0.00 33 1017.0
20260503202531 65 261 5.0 7.0 0.00 0.00 0.00 33 1017.0
20260503202341 65 265 5.0 0.0 0.00 0.00 0.00 33 1017.0
20260503202022 64 255 5.0 7.0 0.00 0.00 0.00 33 1017.0
20260503201836 65 301 4.0 0.0 0.00 0.00 0.00 33 1017.0
20260503201518 64 284 5.0 7.0 0.00 0.00 0.00 33 1017.0
20260503201330 65 279 6.0 0.0 0.00 0.00 0.00 33 1017.0
20260503201011 64 304 6.0 7.0 0.00 0.00 0.00 33 1017.0
20260503200845 65 300 9.0 0.0 0.00 0.00 0.00 33 1017.0
20260503200540 64 284 4.0 12.0 0.00 0.00 0.00 33 1017.0
20260503200339 64 291 10.0 0.0 0.00 0.00 0.00 33 1017.0
20260503200029 64 244 4.0 12.0 0.00 0.00 0.00 33 1017.0
20260503195856 64 293 10.0 0.0 0.00 0.00 0.00 33 1017.0
20260503195559 64 286 6.0 8.0 0.00 0.00 0.00 33 1017.0
20260503195502 64 272 5.0 8.0 0.00 0.00 0.00 33 1017.0
20260503195331 65 291 9.0 0.0 0.00 0.00 0.00 33 1017.0
20260503195051 64 259 6.0 12.0 0.00 0.00 0.00 33 1017.0
20260503194830 65 254 8.0 0.0 0.00 0.00 0.00 33 1017.0
20260503194546 64 254 8.0 12.0 0.00 0.00 0.00 33 1017.0
20260503194326 65 278 10.0 0.0 0.00 0.00 0.00 33 1017.0
20260503194038 64 287 7.0 10.0 0.00 0.00 0.00 33 1017.0
20260503193845 65 299 8.0 0.0 0.00 0.00 0.00 33 1017.0
20260503193514 64 305 8.0 10.0 0.00 0.00 0.00 33 1017.0
20260503193339 65 305 8.0 0.0 0.00 0.00 0.00 33 1017.0
20260503193111 65 283 8.0 10.0 0.00 0.00 0.00 33 1017.0
20260503193006 65 284 9.0 10.0 0.00 0.00 0.00 33 1017.0
20260503192835 65 253 8.0 0.0 0.00 0.00 0.00 33 1017.0
20260503192555 64 300 4.0 8.0 0.00 0.00 0.00 33 1017.0
20260503192330 65 267 6.0 0.0 0.00 0.00 0.00 33 1017.0
20260503192048 64 287 6.0 8.0 0.00 0.00 0.00 33 1017.0
20260503191824 65 285 9.0 0.0 0.00 0.00 0.00 33 1017.0
20260503191541 65 268 5.0 8.0 0.00 0.00 0.00 33 1017.0
20260503191340 65 268 5.0 0.0 0.00 0.00 0.00 33 1017.0
20260503191035 65 274 5.0 8.0 0.00 0.00 0.00 33 1017.0
20260503190836 66 260 4.0 0.0 0.00 0.00 0.00 33 1017.0
20260503190528 65 273 6.0 8.0 0.00 0.00 0.00 33 1017.0
20260503190331 66 196 5.0 0.0 0.00 0.00 0.00 33 1017.0
20260503190020 66 302 4.0 6.0 0.00 0.00 0.00 33 1017.0
20260503185824 66 297 5.0 0.0 0.00 0.00 0.00 33 1017.0
20260503185511 66 294 4.0 6.0 0.00 0.00 0.00 33 1017.0
20260503185401 66 296 5.0 0.0 0.00 0.00 0.00 33 1017.0
20260503185046 66 285 2.0 6.0 0.00 0.00 0.00 33 1017.0
20260503184837 66 299 4.0 0.0 0.00 0.00 0.00 33 1017.0
20260503184542 66 205 5.0 6.0 0.00 0.00 0.00 33 1017.0
20260503184334 66 288 5.0 0.0 0.00 0.00 0.00 33 1017.0
20260503184029 66 218 2.0 7.0 0.00 0.00 0.00 33 1017.0
20260503183850 66 259 5.0 0.0 0.00 0.00 0.00 33 1017.0
20260503183557 66 236 4.0 7.0 0.00 0.00 0.00 33 1017.0
20260503183500 66 255 5.0 7.0 0.00 0.00 0.00 33 1017.0
20260503183344 67 264 8.0 0.0 0.00 0.00 0.00 33 1017.0
20260503183103 66 304 5.0 7.0 0.00 0.00 0.00 33 1017.0
20260503182841 66 266 8.0 0.0 0.00 0.00 0.00 33 1017.0
20260503182544 65 281 4.0 6.0 0.00 0.00 0.00 33 1017.0
20260503182336 65 226 5.0 0.0 0.00 0.00 0.00 33 1017.0
20260503182040 64 237 3.0 6.0 0.00 0.00 0.00 33 1017.0
20260503181832 65 211 9.0 0.0 0.00 0.00 0.00 33 1017.0
20260503181534 65 221 2.0 5.0 0.00 0.00 0.00 33 1017.0
20260503181350 66 221 4.0 0.0 0.00 0.00 0.00 33 1017.0
20260503181100 65 259 2.0 5.0 0.00 0.00 0.00 33 1017.0
20260503181003 65 244 2.0 5.0 0.00 0.00 0.00 33 1017.0
20260503180843 66 315 2.0 0.0 0.00 0.00 0.00 33 1017.0
20260503180554 65 229 2.0 3.0 0.00 0.00 0.00 33 1017.0
20260503180337 66 258 2.0 0.0 0.00 0.00 0.00 33 1017.0
20260503180045 66 272 2.0 3.0 0.00 0.00 0.00 33 1017.0
20260503175836 66 262 3.0 0.0 0.00 0.00 0.00 33 1017.0
20260503175542 65 263 1.0 3.0 0.00 0.00 0.00 33 1017.0
20260503175332 66 265 3.0 0.0 0.00 0.00 0.00 33 1017.0
20260503175034 65 269 2.0 3.0 0.00 0.00 0.00 33 1017.0
20260503174826 66 268 2.0 0.0 0.00 0.00 0.00 33 1017.0
20260503174528 65 260 1.0 2.0 0.00 0.00 0.00 33 1017.0
20260503174345 66 260 0.0 0.0 0.00 0.00 0.00 33 1017.0
20260503174022 65 260 0.0 1.0 0.00 0.00 0.00 33 1017.0
20260503173841 65 260 2.0 0.0 0.00 0.00 0.00 33 1017.0
20260503173517 64 260 0.0 1.0 0.00 0.00 0.00 33 1017.0
20260503173335 65 260 0.0 0.0 0.00 0.00 0.00 33 1017.0
20260503173007 64 260 0.0 0.0 0.00 0.00 0.00 33 1017.0
20260503172829 65 260 1.0 0.0 0.00 0.00 0.00 33 1017.0
20260503172538 64 260 0.0 1.0 0.00 0.00 0.00 33 1017.0
20260503172325 64 260 0.0 0.0 0.00 0.00 0.00 33 1017.0
20260503172030 63 260 0.0 2.0 0.00 0.00 0.00 33 1017.0
20260503171904 64 260 0.0 0.0 0.00 0.00 0.00 33 1017.0
20260503171506 63 260 1.0 3.0 0.00 0.00 0.00 33 1017.0
20260503171339 64 260 1.0 0.0 0.00 0.00 0.00 33 1017.0
20260503171053 63 260 2.0 4.0 0.00 0.00 0.00 33 1017.0
20260503170833 63 288 2.0 0.0 0.00 0.00 0.00 33 1017.0
20260503170547 63 288 2.0 4.0 0.00 0.00 0.00 33 1017.0
20260503170329 63 288 3.0 0.0 0.00 0.00 0.00 33 1017.0
20260503151012 58 20 0.0 0.0 0.00 0.00 0.00 33 1017.0
20260503150835 59 20 1.0 0.0 0.00 0.00 0.00 33 1017.0
20260503150533 58 19 0.0 1.0 0.00 0.00 0.00 33 1017.0
20260503150400 58 19 0.0 0.0 0.00 0.00 0.00 33 1017.0
20260503090332 58 285 0.0 0.0 0.00 0.00 0.00 33 1017.0
20260503090105 58 285 0.0 0.0 0.00 0.00 0.00 33 1017.0
20260503060335 58 245 4.0 0.0 0.00 0.00 0.00 33 1017.0
20260503055100 58 247 2.0 4.0 0.00 0.00 0.00 33 1017.0
20260503055003 58 247 2.0 4.0 0.00 0.00 0.00 33 1017.0
20260503054901 58 247 1.0 0.0 0.00 0.00 0.00 33 1017.0
20260503054533 58 248 3.0 4.0 0.00 0.00 0.00 33 1017.0
20260503054336 58 257 3.0 0.0 0.00 0.00 0.00 33 1017.0
20260503054102 58 279 3.0 3.0 0.00 0.00 0.00 33 1017.0
20260503054008 58 265 3.0 3.0 0.00 0.00 0.00 33 1017.0
20260503053830 58 219 7.0 0.0 0.00 0.00 0.00 33 1017.0
20260503053552 58 221 2.0 4.0 0.00 0.00 0.00 33 1017.0
20260503053346 58 267 4.0 0.0 0.00 0.00 0.00 33 1017.0
20260503053027 58 240 2.0 4.0 0.00 0.00 0.00 33 1017.0
20260503052841 58 239 3.0 0.0 0.00 0.00 0.00 33 1017.0
20260503052518 58 241 2.0 4.0 0.00 0.00 0.00 33 1017.0
20260503052338 58 250 2.0 0.0 0.00 0.00 0.00 33 1017.0
20260503052048 58 250 1.0 3.0 0.00 0.00 0.00 33 1017.0
20260503051832 58 250 2.0 0.0 0.00 0.00 0.00 33 1017.0
20260503051540 58 250 1.0 3.0 0.00 0.00 0.00 33 1017.0
20260503051328 58 252 2.0 0.0 0.00 0.00 0.00 33 1017.0
20260503051034 58 283 1.0 4.0 0.00 0.00 0.00 33 1017.0
20260503050825 58 289 3.0 0.0 0.00 0.00 0.00 33 1017.0
20260503050511 58 289 1.0 4.0 0.00 0.00 0.00 33 1017.0
20260503050342 58 289 1.0 0.0 0.00 0.00 0.00 33 1017.0
20260503050041 58 289 0.0 3.0 0.00 0.00 0.00 33 1017.0
20260503045900 58 289 2.0 0.0 0.00 0.00 0.00 33 1017.0
20260503045513 58 281 3.0 3.0 0.00 0.00 0.00 33 1017.0
20260503045355 58 251 4.0 0.0 0.00 0.00 0.00 33 1017.0
20260503045043 58 228 1.0 3.0 0.00 0.00 0.00 33 1017.0
20260503044829 59 228 4.0 0.0 0.00 0.00 0.00 33 1017.0
20260503044533 58 226 1.0 3.0 0.00 0.00 0.00 33 1017.0
20260503044342 59 224 2.0 0.0 0.00 0.00 0.00 33 1017.0
20260503044027 58 282 2.0 3.0 0.00 0.00 0.00 33 1017.0
20260503043840 59 280 5.0 0.0 0.00 0.00 0.00 33 1017.0
20260503043521 58 288 2.0 6.0 0.00 0.00 0.00 33 1017.0
20260503043356 58 298 3.0 0.0 0.00 0.00 0.00 33 1017.0
20260503043057 58 297 3.0 6.0 0.00 0.00 0.00 33 1017.0
20260503042832 58 289 3.0 0.0 0.00 0.00 0.00 33 1017.0
20260503042546 58 285 4.0 6.0 0.00 0.00 0.00 33 1017.0
20260503042326 58 285 5.0 0.0 0.00 0.00 0.00 33 1017.0
20260503042018 58 283 3.0 5.0 0.00 0.00 0.00 33 1017.0
20260503041843 59 281 4.0 0.0 0.00 0.00 0.00 33 1017.0
20260503041550 58 290 4.0 5.0 0.00 0.00 0.00 33 1017.0
20260503041339 59 289 4.0 0.0 0.00 0.00 0.00 33 1017.0
20260503041042 58 286 2.0 4.0 0.00 0.00 0.00 33 1017.0
20260503040835 59 286 4.0 0.0 0.00 0.00 0.00 33 1017.0
20260503040537 58 294 3.0 3.0 0.00 0.00 0.00 33 1017.0
20260503040330 59 294 2.0 0.0 0.00 0.00 0.00 33 1017.0
20260503040035 59 294 2.0 4.0 0.00 0.00 0.00 33 1017.0
20260503035826 59 294 3.0 0.0 0.00 0.00 0.00 33 1017.0
20260503035525 59 294 3.0 4.0 0.00 0.00 0.00 33 1017.0
20260503035345 59 294 4.0 0.0 0.00 0.00 0.00 33 1017.0
20260503035054 59 294 2.0 5.0 0.00 0.00 0.00 33 1017.0
20260503034840 59 294 1.0 0.0 0.00 0.00 0.00 33 1017.0
20260503034550 59 294 2.0 5.0 0.00 0.00 0.00 33 1017.0
20260503034336 60 294 3.0 0.0 0.00 0.00 0.00 33 1017.0
20260503034045 59 294 4.0 4.0 0.00 0.00 0.00 33 1017.0
20260503033835 60 294 5.0 0.0 0.00 0.00 0.00 33 1017.0
20260503033543 59 294 2.0 3.0 0.00 0.00 0.00 33 1017.0
20260503033336 60 294 2.0 0.0 0.00 0.00 0.00 33 1017.0
20260503033035 59 294 2.0 3.0 0.00 0.00 0.00 33 1017.0
20260503032834 60 294 2.0 0.0 0.00 0.00 0.00 33 1017.0
20260503032527 60 294 2.0 4.0 0.00 0.00 0.00 33 1017.0
20260503032330 60 294 1.0 0.0 0.00 0.00 0.00 33 1017.0
20260503032056 60 294 2.0 4.0 0.00 0.00 0.00 33 1017.0
20260503031824 60 294 3.0 0.0 0.00 0.00 0.00 33 1017.0
20260503031557 60 294 3.0 5.0 0.00 0.00 0.00 33 1017.0
20260503031342 61 294 3.0 0.0 0.00 0.00 0.00 33 1017.0
20260503031047 60 294 2.0 5.0 0.00 0.00 0.00 33 1017.0
20260503030839 61 294 4.0 0.0 0.00 0.00 0.00 33 1017.0
20260503030543 60 299 3.0 4.0 0.00 0.00 0.00 33 1017.0
20260503030335 61 288 4.0 0.0 0.00 0.00 0.00 33 1017.0
20260503030033 61 288 2.0 4.0 0.00 0.00 0.00 33 1017.0
20260503025831 61 287 5.0 0.0 0.00 0.00 0.00 33 1017.0
20260503025527 61 288 3.0 3.0 0.00 0.00 0.00 33 1017.0
20260503025325 61 288 3.0 0.0 0.00 0.00 0.00 33 1017.0
20260503025020 61 288 1.0 3.0 0.00 0.00 0.00 33 1017.0
20260503024903 61 288 2.0 0.0 0.00 0.00 0.00 33 1017.0
20260503024610 61 288 2.0 3.0 0.00 0.00 0.00 33 1017.0
20260503024359 62 288 1.0 0.0 0.00 0.00 0.00 33 1017.0
20260503024022 61 288 2.0 3.0 0.00 0.00 0.00 33 1017.0
20260503023855 62 288 3.0 0.0 0.00 0.00 0.00 33 1017.0
20260503023555 61 286 2.0 4.0 0.00 0.00 0.00 33 1017.0
20260503023332 62 235 3.0 0.0 0.00 0.00 0.00 33 1017.0
20260503023047 62 236 2.0 5.0 0.00 0.00 0.00 33 1017.0
20260503022826 62 294 1.0 0.0 0.00 0.00 0.00 33 1017.0
20260503022521 62 292 2.0 5.0 0.00 0.00 0.00 33 1017.0
20260503022345 63 251 4.0 0.0 0.00 0.00 0.00 33 1017.0
20260503022017 62 237 3.0 6.0 0.00 0.00 0.00 33 1017.0
20260503021904 63 237 3.0 0.0 0.00 0.00 0.00 33 1017.0
20260503021555 62 235 3.0 6.0 0.00 0.00 0.00 33 1017.0
20260503021340 63 227 3.0 0.0 0.00 0.00 0.00 33 1017.0
20260503021020 63 238 3.0 6.0 0.00 0.00 0.00 33 1017.0
20260503020834 64 237 3.0 0.0 0.00 0.00 0.00 33 1017.0
20260503020514 63 295 2.0 6.0 0.00 0.00 0.00 33 1017.0
20260503020350 64 221 2.0 0.0 0.00 0.00 0.00 33 1017.0
20260503020048 64 236 2.0 3.0 0.00 0.00 0.00 33 1017.0
20260503015825 64 295 3.0 0.0 0.00 0.00 0.00 33 1017.0
20260503015536 64 253 2.0 4.0 0.00 0.00 0.00 33 1017.0
20260503015402 65 279 4.0 0.0 0.00 0.00 0.00 33 1017.0
20260503015010 64 224 3.0 5.0 0.00 0.00 0.00 33 1017.0
20260503014856 65 290 3.0 0.0 0.00 0.00 0.00 33 1017.0
20260503014542 64 245 2.0 5.0 0.00 0.00 0.00 33 1017.0
20260503014332 65 267 1.0 0.0 0.00 0.00 0.00 33 1017.0
20260503014030 65 267 3.0 5.0 0.00 0.00 0.00 33 1017.0
20260503013825 65 254 3.0 0.0 0.00 0.00 0.00 33 1017.0
20260503013524 65 224 4.0 5.0 0.00 0.00 0.00 33 1017.0
20260503013342 66 204 2.0 0.0 0.00 0.00 0.00 33 1017.0
20260503013023 65 232 3.0 4.0 0.00 0.00 0.00 33 1017.0
20260503012857 66 280 1.0 0.0 0.00 0.00 0.00 33 1017.0
20260503012551 66 279 3.0 6.0 0.00 0.00 0.00 33 1017.0
20260503012331 66 276 4.0 0.0 0.00 0.00 0.00 33 1017.0
20260503012040 66 277 3.0 6.0 0.00 0.00 0.00 33 1017.0
20260503011828 67 279 2.0 0.0 0.00 0.00 0.00 33 1017.0
20260503011514 66 207 5.0 6.0 0.00 0.00 0.00 33 1017.0
20260503011344 67 244 2.0 0.0 0.00 0.00 0.00 33 1017.0
20260503011006 67 292 4.0 5.0 0.00 0.00 0.00 33 1017.0
20260503010839 67 280 4.0 0.0 0.00 0.00 0.00 33 1017.0
20260503010555 67 281 2.0 5.0 0.00 0.00 0.00 33 1017.0
20260503010334 67 291 2.0 0.0 0.00 0.00 0.00 33 1017.0
20260503010049 67 288 4.0 6.0 0.00 0.00 0.00 33 1017.0
20260503005834 67 288 5.0 0.0 0.00 0.00 0.00 33 1017.0
20260503005544 67 266 3.0 6.0 0.00 0.00 0.00 33 1017.0
20260503005330 68 281 8.0 0.0 0.00 0.00 0.00 33 1017.0
20260503005037 68 243 3.0 6.0 0.00 0.00 0.00 33 1017.0
20260503004826 68 281 5.0 0.0 0.00 0.00 0.00 33 1017.0
20260503004532 68 244 3.0 7.0 0.00 0.00 0.00 33 1017.0
20260503004403 69 257 5.0 0.0 0.00 0.00 0.00 33 1017.0
20260503004102 68 213 3.0 7.0 0.00 0.00 0.00 33 1017.0
20260503004007 68 227 3.0 7.0 0.00 0.00 0.00 33 1017.0
20260503003837 69 259 3.0 0.0 0.00 0.00 0.00 33 1017.0
20260503003538 69 264 3.0 6.0 0.00 0.00 0.00 33 1017.0
20260503003334 70 214 11.0 0.0 0.00 0.00 0.00 33 1017.0
20260503003028 70 275 2.0 8.0 0.00 0.00 0.00 33 1017.0
20260503002829 71 295 4.0 0.0 0.00 0.00 0.00 33 1017.0
20260503002523 71 298 4.0 8.0 0.00 0.00 0.00 33 1017.0
20260503002329 71 274 7.0 0.0 0.00 0.00 0.00 33 1017.0
20260503002020 71 217 3.0 6.0 0.00 0.00 0.00 33 1017.0
20260503001845 72 292 10.0 0.0 0.00 0.00 0.00 33 1017.0
20260503001558 72 294 5.0 6.0 0.00 0.00 0.00 33 1017.0
20260503001403 72 263 4.0 0.0 0.00 0.00 0.00 33 1017.0
20260503001018 71 299 3.0 7.0 0.00 0.00 0.00 33 1017.0
20260503000837 72 182 3.0 0.0 0.00 0.00 0.00 33 1017.0
20260503000520 72 238 6.0 7.0 0.00 0.00 0.00 33 1017.0
20260503000352 73 257 7.0 0.0 0.00 0.00 0.00 33 1017.0
20260503000042 72 297 5.0 7.0 0.00 0.00 0.00 33 1017.0
20260502235848 73 256 5.0 0.0 0.00 0.00 0.00 33 1017.0
20260502235514 72 277 4.0 7.0 0.00 0.00 0.00 33 1017.0
20260502235344 73 295 6.0 0.0 0.00 0.00 0.00 33 1017.0
20260502235009 72 285 4.0 8.0 0.00 0.00 0.00 33 1017.0
20260502234839 72 275 5.0 0.0 0.00 0.00 0.00 33 1017.0
20260502234614 72 218 5.0 8.0 0.00 0.00 0.00 33 1017.0
20260502234334 73 283 3.0 0.0 0.00 0.00 0.00 33 1017.0
20260502234051 72 289 6.0 6.0 0.00 0.00 0.00 33 1017.0
20260502233830 73 297 11.0 0.0 0.00 0.00 0.00 33 1017.0
20260502233545 72 262 5.0 12.0 0.00 0.00 0.00 33 1017.0
20260502233345 73 235 5.0 0.0 0.00 0.00 0.00 33 1017.0
20260502233048 73 217 5.0 12.0 0.00 0.00 0.00 33 1017.0
20260502232841 73 286 13.0 0.0 0.00 0.00 0.00 33 1017.0
20260502232531 73 292 6.0 8.0 0.00 0.00 0.00 33 1017.0
20260502232336 73 287 8.0 0.0 0.00 0.00 0.00 33 1017.0
20260502232058 73 286 5.0 8.0 0.00 0.00 0.00 33 1017.0
20260502232002 73 291 5.0 8.0 0.00 0.00 0.00 33 1017.0
20260502231831 73 263 9.0 0.0 0.00 0.00 0.00 33 1017.0
20260502231604 73 263 6.0 7.0 0.00 0.00 0.00 33 1017.0
20260502231407 73 221 3.0 0.0 0.00 0.00 0.00 33 1017.0
20260502231022 72 273 4.0 12.0 0.00 0.00 0.00 33 1017.0
20260502230840 73 255 5.0 0.0 0.00 0.00 0.00 33 1017.0
20260502230553 73 253 7.0 12.0 0.00 0.00 0.00 33 1017.0
20260502230355 73 307 6.0 0.0 0.00 0.00 0.00 33 1017.0
20260502230024 73 280 7.0 9.0 0.00 0.00 0.00 33 1017.0
20260502225831 73 296 8.0 0.0 0.00 0.00 0.00 33 1017.0